Wetbulb
62.73 57.29 57.24 56.25 43.40 42.37 41.21 46.72 52.07 53.68 58.64 61.94 63.32 61.80 62.35 65.09 59.80 55.73 67.02 73.87 74.30 74.87 76.87 77.91 77.84 77.96 77.71 77.33 77.27 77.04 76.69 76.68 76.56 76.46 76.81 76.91 76.69 76.85 76.77 76.60 76.88 76.75 76.18 75.90 75.37 74.52 74.66 75.15 75.18
58.47 58.85 55.44 48.69 40.44 36.85 41.54 50.15 50.84 54.15 59.81 60.13 66.80 65.75 64.74 61.78 67.25 66.92 71.28 73.97 73.73 75.01 75.94 77.12 77.84 77.68 77.56 77.33 77.07 76.76 76.56 76.76 76.61 76.46 76.96 76.93 76.72 76.72 76.60 76.48 76.35 75.98 74.99 75.00 74.72 74.53 74.89 75.16 74.86
60.16 58.26 47.71 42.48 39.41 39.28 41.11 49.33 51.08 55.58 58.77 58.55 60.82 67.99 66.20 64.89 68.95 68.77 73.88 74.00 74.03 73.38 75.12 77.27 78.13 77.38 77.46 77.20 77.02 76.69 76.61 76.68 76.64 76.49 76.76 76.98 76.69 76.52 76.42 76.05 76.02 75.80 74.88 74.78 74.58 74.61 74.98 75.06 74.79
52.92 51.59 49.08 39.20 39.09 44.36 47.43 50.66 52.48 53.70 57.24 57.75 59.08 63.16 65.41 70.03 70.60 74.01 74.71 74.59 73.12 73.20 75.54 77.57 77.92 77.37 77.45 77.20 76.89 76.56 76.61 76.81 76.59 76.29 76.78 76.91 76.71 76.14 76.14 76.12 76.02 76.12 75.52 74.93 74.66 74.86 75.07 75.07 75.05
53.74 49.23 39.55 37.60 40.79 46.10 49.75 52.21 53.24 52.82 55.73 56.31 57.21 65.64 63.10 68.33 72.94 74.72 74.42 74.74 72.73 74.42 75.84 77.09 77.69 77.47 77.52 77.22 76.92 76.77 76.66 76.58 76.41 76.24 76.63 76.81 76.73 75.86 75.94 76.17 76.33 76.22 76.12 75.61 74.93 75.47 75.25 75.05 74.70
46.52 44.97 37.52 38.20 42.44 47.44 50.48 52.68 52.58 52.86 54.44 56.67 56.91 66.30 65.70 69.84 72.96 73.92 74.36 73.98 74.16 74.57 75.55 76.58 77.67 77.44 77.19 77.17 76.89 76.61 76.35 76.29 76.23 75.98 76.43 76.74 76.67 76.11 75.64 75.87 76.27 76.30 76.10 75.97 75.82 75.67 75.37 75.24 75.31
43.04 41.76 38.67 41.35 43.83 46.34 49.84 52.90 52.08 52.49 52.91 56.16 57.55 63.64 65.82 67.46 71.74 73.47 73.07 73.35 74.84 74.45 74.42 75.66 76.28 77.03 77.51 76.90 76.45 76.25 76.09 75.96 75.87 75.67 76.01 76.21 76.26 76.05 75.79 75.44 75.77 76.29 76.04 75.79 75.82 75.61 75.26 75.13 74.88
46.64 43.41 40.51 43.90 44.17 45.30 50.92 52.64 52.77 52.54 53.98 60.63 59.25 61.77 63.50 67.42 70.71 72.28 72.18 73.70 73.56 73.28 73.68 74.36 75.17 75.48 75.47 75.86 76.80 76.32 76.07 75.77 75.42 75.56 75.86 75.71 75.94 75.85 75.75 74.85 75.09 75.49 75.81 75.74 75.41 75.04 74.79 74.53 74.21
49.71 40.57 40.51 42.53 44.61 47.18 50.81 49.65 54.19 55.26 53.55 55.41 59.30 68.49 69.25 69.99 70.88 69.97 70.73 71.73 71.76 72.39 72.38 73.49 74.55 74.68 74.95 75.35 76.16 76.29 76.49 76.16 75.82 75.84 75.76 74.74 72.87 73.73 74.80 74.69 75.53 75.47 75.34 75.44 75.16 74.96 74.51 74.08 74.13
46.82 40.70 42.88 46.92 48.02 47.61 50.38 51.88 53.05 52.51 52.16 52.18 66.44 69.88 70.71 70.25 69.45 68.07 68.58 69.67 69.82 69.78 70.53 72.06 72.71 73.58 74.15 75.73 74.48 74.66 74.78 74.52 74.19 74.25 73.96 72.59 70.15 71.55 73.25 73.48 75.29 75.66 75.24 74.86 74.78 74.63 74.40 74.21 70.45
46.74 44.49 47.83 48.40 49.49 50.43 50.45 50.79 53.20 51.97 49.33 51.16 57.37 69.89 70.51 69.43 68.89 68.06 68.28 69.08 69.21 69.53 69.76 70.24 70.87 71.58 72.36 73.69 73.63 73.85 74.08 73.51 73.09 73.03 72.67 69.79 69.22 71.36 70.76 69.28 72.59 72.34 74.27 72.30 73.34 72.89 72.36 70.32 68.56
46.15 49.38 49.68 49.70 50.65 49.62 48.56 49.86 49.61 48.80 50.74 54.05 54.32 67.08 70.90 70.25 69.12 68.02 67.99 68.63 68.99 68.57 69.08 69.49 69.59 69.43 68.01 73.57 72.84 73.02 73.15 72.75 72.42 72.47 71.61 69.34 67.32 68.45 67.48 69.43 70.51 71.11 70.86 69.47 68.27 68.99 69.28 68.64 67.22
47.43 49.44 50.69 49.89 49.54 49.23 49.71 48.80 48.86 47.65 51.23 54.04 54.39 58.09 65.51 67.98 68.04 69.00 68.58 69.41 69.63 68.38 68.73 69.21 69.63 68.72 68.44 71.27 70.90 70.40 70.88 70.81 70.63 70.11 71.05 69.25 67.65 67.06 68.15 67.88 69.53 70.31 69.29 69.05 66.98 67.07 66.78 66.74 66.61
47.89 49.10 50.28 50.90 49.16 48.47 47.71 48.35 47.74 49.92 51.27 52.85 53.27 54.50 56.07 60.83 63.57 65.07 68.33 68.68 69.39 69.34 68.57 69.88 69.06 68.84 70.45 69.66 68.44 68.92 69.36 68.86 69.17 69.55 70.85 70.05 68.59 67.11 68.85 67.64 68.89 69.07 68.88 68.63 68.21 67.24 67.11 66.45 66.55
48.92 45.99 48.39 49.41 49.80 50.00 49.25 45.90 46.89 50.41 50.15 50.21 51.41 52.13 53.34 54.42 55.05 57.09 60.91 64.86 70.30 69.51 69.63 69.52 69.06 69.40 70.63 69.88 68.83 69.66 70.41 69.68 69.27 69.17 70.31 70.83 69.00 67.32 68.97 68.29 67.61 67.06 67.66 67.52 68.28 68.26 68.48 68.48 68.29
46.54 45.39 41.43 46.83 49.69 50.62 49.09 44.81 49.38 50.87 49.12 49.01 50.28 51.11 52.01 52.37 53.17 53.34 57.70 58.78 69.36 69.75 69.60 70.69 71.24 69.93 70.24 72.69 70.64 70.78 71.32 70.31 70.66 70.17 70.43 70.41 70.38 69.50 69.31 68.05 67.97 67.58 67.18 68.17 67.61 66.80 66.79 66.69 67.22
42.90 38.84 40.46 43.94 49.49 49.32 48.63 46.17 50.08 51.45 48.81 47.71 49.00 49.54 50.51 50.37 52.28 52.75 54.68 56.04 69.55 70.51 70.04 71.43 71.06 71.05 71.09 72.77 73.57 71.27 71.68 70.70 71.49 72.08 71.24 70.29 70.52 71.13 72.22 69.85 69.97 71.50 70.37 71.16 70.98 70.24 69.26 68.25 68.38
37.96 39.23 41.62 42.04 46.85 48.37 46.33 46.92 50.34 50.01 50.64 49.80 48.01 49.54 49.48 50.17 50.92 53.14 54.07 55.03 67.74 71.34 71.05 70.40 71.07 71.26 72.28 73.15 73.07 73.13 71.81 72.90 71.66 72.59 73.10 71.28 71.77 71.40 71.59 71.76 72.27 71.30 71.03 70.01 70.52 69.75 70.02 69.10 68.99
43.25 42.15 41.66 44.81 48.08 46.64 45.72 46.58 48.70 50.17 50.41 49.88 48.27 48.66 48.80 49.36 51.35 52.38 54.51 54.01 64.15 71.36 69.64 67.25 66.94 71.78 72.13 72.47 71.77 71.60 70.61 71.70 71.64 71.78 73.19 73.38 72.90 73.23 72.39 71.57 71.17 71.88 70.84 69.78 69.98 69.63 68.87 69.12 69.38
42.32 40.12 39.95 43.71 46.68 45.66 45.11 45.63 48.74 50.57 50.34 50.74 49.07 48.58 49.31 49.99 50.33 52.56 54.00 53.96 62.14 71.04 70.96 70.06 70.71 71.45 72.06 72.62 72.50 72.30 70.83 71.39 71.47 72.41 73.33 74.56 73.45 73.60 73.88 73.40 72.89 73.25 71.43 70.44 70.14 69.83 68.13 68.47 69.39
41.17 39.05 39.96 40.55 44.61 45.64 43.76 41.91 44.64 49.32 51.45 51.39 51.10 51.07 50.40 50.59 52.05 52.28 53.36 54.54 60.60 72.01 72.90 71.89 72.95 72.81 72.98 73.35 73.77 72.88 72.90 71.89 72.24 72.44 72.88 74.38 74.65 74.75 73.90 73.67 73.35 72.86 71.53 69.63 69.75 69.86 68.76 67.57 68.00
38.63 44.37 43.48 42.08 40.01 35.52 43.09 34.11 41.72 46.25 48.71 51.21 50.44 50.37 50.63 50.98 51.01 52.59 53.30 52.23 59.39 68.62 72.84 74.25 73.84 73.85 74.20 74.65 74.12 72.55 72.45 70.07 72.34 72.71 73.10 73.06 73.36 73.20 73.18 73.15 73.55 72.37 71.09 70.17 69.34 66.32 68.92 67.95 66.15
41.27 46.33 44.11 43.34 39.11 37.89 38.61 35.66 39.37 45.46 46.35 48.80 50.26 50.12 50.97 51.40 50.04 50.22 53.03 54.12 60.31 66.80 70.87 73.57 74.36 74.12 74.65 74.70 73.98 73.13 71.81 71.42 71.72 72.82 72.73 72.53 72.25 72.71 73.24 72.61 71.54 70.81 71.19 67.80 68.63 67.84 68.29 67.98 66.42
47.19 43.70 42.93 41.54 38.78 31.96 36.81 36.27 36.82 41.20 45.14 48.36 50.95 50.18 51.81 51.75 51.13 51.34 52.70 55.00 59.17 65.04 68.87 70.51 73.51 73.67 74.21 74.39 72.76 71.30 69.72 69.70 69.03 69.48 70.93 71.32 71.77 72.16 72.11 72.02 70.87 70.48 70.27 68.76 68.67 68.62 68.01 66.90 67.10
42.85 38.71 32.11 29.82 29.52 28.86 39.12 36.43 38.21 44.14 48.52 49.88 50.02 51.01 51.77 52.48 52.14 51.89 52.15 53.51 58.00 61.84 63.57 65.24 69.01 71.50 73.67 72.58 72.26 71.03 70.51 69.10 68.09 69.61 69.85 69.89 69.51 69.69 69.86 69.85 69.38 68.94 69.18 68.61 67.82 66.15 66.16 66.54 65.60
36.90 36.48 31.75 24.30 25.39 30.33 39.84 33.49 38.38 46.72 48.93 51.19 51.98 52.07 52.66 52.55 52.55 52.53 53.12 53.45 57.56 60.52 61.21 63.24 65.34 69.24 72.02 71.89 71.16 70.57 70.87 70.98 71.39 70.65 70.30 70.18 69.92 69.58 68.99 68.83 68.34 67.77 67.97 68.02 67.19 66.94 66.83 66.52 65.76
39.51 34.53 39.70 33.21 36.04 32.37 33.91 39.32 43.55 46.67 47.41 48.47 48.84 49.80 49.47 51.25 53.40 52.99 53.84 53.96 53.31 59.55 60.43 61.49 63.06 65.69 70.98 71.28 70.62 70.79 71.01 71.35 70.52 69.28 69.14 68.89 68.95 68.51 67.84 67.12 66.47 66.43 66.39 66.49 65.93 64.58 64.70 65.14 64.85
41.07 44.29 34.78 31.43 26.45 23.92 31.89 34.57 36.25 43.50 45.73 47.45 47.81 47.94 48.93 51.83 53.34 53.33 53.89 54.53 55.29 58.49 61.30 63.22 64.26 66.80 71.13 70.62 70.45 70.36 68.99 68.33 67.23 66.87 65.93 66.12 66.34 66.36 65.87 64.98 64.72 64.70 63.64 63.66 62.99 62.31 62.13 60.78 60.46
37.30 37.42 38.13 36.33 34.72 26.90 26.15 31.41 43.97 44.44 45.92 47.00 50.12 48.42 49.63 55.10 55.90 54.21 54.24 54.74 55.62 58.80 61.75 63.56 68.31 69.93 69.41 69.30 68.87 67.05 66.38 66.21 66.25 65.81 65.56 65.31 64.90 64.19 64.05 63.84 62.87 60.20 58.76 57.85 55.91 54.71 54.56 54.48 54.58
41.07 38.94 38.86 30.71 30.33 34.25 31.86 32.38 47.17 47.96 47.69 49.10 53.08 50.49 60.63 60.84 61.29 61.49 58.31 53.22 57.30 64.33 67.57 67.72 67.75 67.39 66.94 66.65 65.63 65.27 65.27 63.52 61.78 60.03 59.53 59.33 58.31 58.12 57.90 57.68 56.74 55.43 56.10 52.17 50.91 50.00 50.11 49.73 49.92
MSLP
1009.24 1008.78 1008.99 1009.25 1009.58 1008.58 1007.12 1004.06 1002.44 1000.56 1000.21 999.30 998.95 1000.38 1003.10 1003.42 1005.24 1005.99 1004.54 1004.47 1005.52 1006.30 1007.11 1007.70 1007.94 1008.10 1008.47 1008.95 1009.60 1010.15 1010.71 1011.15 1011.56 1011.89 1012.28 1012.64 1012.98 1013.35 1013.59 1013.86 1014.08 1014.32 1014.62 1014.87 1015.15 1015.42 1015.63 1015.68 1015.72
1009.24 1008.87 1008.62 1008.64 1009.01 1008.38 1006.01 1003.09 1001.10 999.53 998.92 998.75 999.46 1000.98 1002.36 1003.40 1003.54 1003.81 1003.82 1004.50 1005.36 1006.46 1007.05 1007.70 1008.04 1008.29 1008.62 1009.08 1009.69 1010.28 1010.81 1011.29 1011.70 1012.07 1012.52 1012.90 1013.22 1013.49 1013.78 1014.00 1014.22 1014.46 1014.82 1015.03 1015.28 1015.52 1015.70 1015.80 1015.78
1009.48 1009.21 1009.13 1008.57 1008.12 1007.47 1005.26 1001.66 1000.83 999.69 997.79 997.77 998.68 999.65 1001.35 1002.08 1001.81 1001.53 1003.48 1005.12 1005.44 1006.71 1007.17 1007.72 1008.09 1008.28 1008.75 1009.20 1009.82 1010.42 1010.88 1011.40 1011.78 1012.18 1012.67 1013.04 1013.37 1013.62 1013.86 1014.12 1014.29 1014.48 1014.82 1015.08 1015.36 1015.60 1015.73 1015.88 1015.92
1009.12 1009.04 1008.72 1007.83 1007.24 1005.43 1003.75 1001.05 1000.10 999.48 998.36 997.56 997.85 1000.33 1001.04 1000.74 1000.50 1001.89 1003.31 1004.86 1005.74 1006.89 1007.28 1007.85 1008.16 1008.38 1008.89 1009.33 1009.88 1010.44 1010.92 1011.48 1011.89 1012.27 1012.71 1013.05 1013.41 1013.69 1013.90 1014.17 1014.42 1014.56 1014.80 1015.02 1015.35 1015.64 1015.76 1015.87 1015.94
1009.00 1008.90 1008.60 1007.81 1006.44 1004.66 1002.56 1000.94 1000.13 999.40 998.51 997.53 997.61 999.92 1000.43 1000.83 1000.56 1002.28 1003.48 1004.62 1005.79 1006.85 1007.33 1007.96 1008.04 1008.47 1008.92 1009.38 1009.91 1010.48 1010.96 1011.51 1011.96 1012.36 1012.75 1013.08 1013.37 1013.70 1014.02 1014.22 1014.40 1014.67 1014.91 1015.12 1015.40 1015.62 1015.82 1015.87 1016.00
1009.39 1008.18 1008.18 1007.42 1005.93 1003.98 1001.76 1000.24 999.63 998.83 998.08 997.13 997.58 999.20 1000.35 1000.41 1001.00 1002.41 1003.42 1004.69 1005.95 1006.62 1007.23 1007.76 1007.90 1008.29 1008.71 1009.26 1009.83 1010.39 1010.92 1011.50 1011.90 1012.32 1012.79 1013.12 1013.42 1013.68 1014.03 1014.28 1014.50 1014.73 1014.96 1015.20 1015.42 1015.63 1015.81 1015.86 1016.01
1009.22 1008.50 1007.42 1006.46 1005.06 1003.36 1001.16 999.72 999.32 998.28 997.48 996.50 996.81 998.36 999.80 1000.31 1001.15 1001.68 1002.88 1004.42 1005.76 1006.64 1007.26 1007.56 1007.90 1008.29 1008.66 1009.20 1009.76 1010.26 1010.76 1011.30 1011.80 1012.23 1012.64 1013.11 1013.45 1013.70 1013.98 1014.34 1014.59 1014.82 1014.98 1015.25 1015.47 1015.71 1015.89 1016.04 1016.10
1008.40 1008.20 1007.04 1005.78 1004.59 1002.61 1000.86 999.56 998.65 998.40 996.74 995.77 996.10 998.11 999.52 999.68 1000.51 1001.46 1002.56 1004.35 1005.23 1006.31 1007.20 1007.68 1007.90 1008.30 1008.76 1009.23 1009.58 1010.01 1010.51 1011.02 1011.44 1012.01 1012.52 1012.90 1013.41 1013.76 1014.05 1014.35 1014.64 1014.85 1015.00 1015.28 1015.54 1015.77 1015.94 1016.08 1016.14
1007.82 1007.74 1006.15 1005.07 1003.92 1002.46 1000.78 999.70 998.07 997.64 996.72 996.19 996.26 996.90 998.31 999.32 1000.31 1001.30 1002.52 1004.18 1005.23 1006.25 1006.88 1007.44 1007.92 1008.18 1008.62 1009.10 1009.68 1010.08 1010.51 1010.98 1011.50 1011.99 1012.42 1012.91 1013.36 1013.79 1014.12 1014.34 1014.58 1014.87 1015.03 1015.25 1015.45 1015.65 1015.82 1015.96 1016.08
1007.35 1006.51 1005.07 1004.30 1003.12 1002.07 1001.04 999.78 998.60 998.75 997.93 997.04 997.52 997.74 998.33 999.28 1000.07 1000.92 1002.22 1003.48 1004.49 1005.61 1006.41 1007.01 1007.54 1008.18 1008.62 1009.03 1009.67 1010.37 1010.90 1011.33 1011.74 1012.11 1012.40 1012.77 1013.10 1013.61 1013.94 1014.20 1014.40 1014.68 1014.89 1015.03 1015.19 1015.40 1015.58 1015.70 1015.82
1006.04 1004.72 1004.48 1003.22 1002.62 1002.05 1001.02 999.75 998.92 999.14 998.58 997.67 997.88 998.08 998.46 999.10 999.84 1000.59 1001.82 1002.77 1003.77 1004.72 1005.59 1006.50 1007.31 1007.92 1008.35 1008.86 1009.54 1010.22 1010.64 1011.19 1011.68 1012.08 1012.50 1012.64 1012.92 1013.18 1013.54 1013.97 1014.16 1014.48 1014.67 1014.89 1014.98 1015.16 1015.31 1015.37 1015.46
1005.19 1004.25 1003.80 1003.07 1002.41 1001.61 1000.70 1000.06 998.92 999.14 998.80 997.99 997.24 997.94 998.38 998.83 999.46 1000.26 1001.00 1001.96 1003.30 1004.27 1005.04 1005.98 1006.81 1007.38 1007.80 1008.43 1009.30 1009.65 1010.40 1010.76 1011.23 1011.61 1012.11 1012.51 1012.78 1012.93 1013.13 1013.55 1013.84 1014.12 1014.28 1014.57 1014.61 1014.76 1014.86 1015.03 1015.02
1004.43 1003.79 1003.10 1002.60 1001.87 1000.86 1000.77 999.84 999.39 999.06 998.66 998.00 997.79 997.75 998.10 998.74 999.12 999.92 1000.59 1001.30 1002.33 1003.44 1004.37 1005.10 1006.03 1007.02 1007.62 1008.24 1008.91 1009.45 1009.99 1010.38 1010.71 1011.22 1011.63 1012.06 1012.53 1012.83 1012.68 1013.06 1013.37 1013.66 1013.90 1014.17 1014.24 1014.25 1014.38 1014.55 1014.52
1003.79 1003.25 1002.30 1001.70 1000.97 1000.64 1000.42 999.37 999.85 998.54 998.60 998.07 997.94 998.05 998.24 998.64 998.86 999.39 1000.68 1001.46 1002.09 1002.46 1003.37 1004.25 1005.56 1006.28 1007.02 1007.68 1008.42 1009.03 1009.33 1009.67 1010.19 1010.57 1011.10 1011.55 1011.91 1012.32 1012.57 1012.61 1012.93 1013.06 1013.28 1013.55 1013.88 1013.98 1014.18 1014.26 1014.20
1003.56 1003.12 1002.09 1000.66 1000.71 999.78 1000.19 999.64 999.22 998.31 998.54 998.41 998.00 998.62 998.46 998.69 998.76 999.27 999.96 1001.48 1001.83 1002.76 1003.60 1004.79 1005.31 1005.98 1006.70 1007.11 1007.79 1008.42 1009.23 1009.53 1009.84 1010.03 1010.11 1010.89 1011.35 1011.72 1011.93 1012.15 1012.30 1012.54 1012.87 1013.16 1013.44 1013.49 1013.57 1013.82 1013.94
1003.65 1003.08 1001.96 1000.83 1000.23 999.67 1000.25 998.44 998.21 998.24 998.69 998.62 998.30 998.47 999.04 998.89 998.98 999.05 999.41 1000.20 1001.44 1002.57 1003.76 1004.69 1006.25 1005.99 1006.87 1007.12 1007.97 1008.57 1008.66 1009.26 1009.60 1009.76 1009.82 1010.11 1010.78 1011.02 1011.51 1011.84 1011.88 1011.89 1012.12 1012.46 1012.98 1013.16 1013.18 1013.36 1013.58
1003.46 1002.46 1001.70 1000.84 1000.20 1000.01 1000.02 997.55 997.92 997.94 998.38 998.48 998.52 998.48 998.84 999.08 999.25 999.08 999.30 999.67 1000.53 1002.35 1003.51 1004.71 1005.28 1005.59 1005.56 1006.27 1007.51 1008.06 1008.34 1008.67 1009.20 1009.49 1009.40 1009.67 1010.43 1010.64 1011.07 1011.53 1011.65 1011.74 1012.26 1012.53 1012.75 1013.01 1013.04 1013.29 1013.37
1003.88 1002.83 1001.97 1000.56 1000.13 999.77 999.36 997.22 998.06 997.50 997.82 998.14 998.46 998.46 998.66 998.98 998.98 999.11 999.15 999.60 1000.64 1001.66 1002.88 1004.10 1004.87 1004.43 1003.91 1005.65 1006.41 1007.75 1008.06 1008.50 1008.57 1009.05 1008.93 1009.12 1009.81 1010.22 1010.66 1011.15 1011.44 1011.53 1012.16 1012.39 1012.61 1012.66 1012.76 1012.89 1013.08
1003.51 1002.55 1001.52 1000.20 999.85 999.63 998.90 997.43 997.44 997.19 997.33 997.72 998.12 998.45 998.43 998.54 998.53 998.72 999.12 999.34 1000.52 1001.76 1002.60 1003.14 1003.87 1004.10 1004.47 1005.78 1006.03 1007.34 1008.17 1008.42 1008.40 1008.42 1008.27 1008.62 1009.22 1009.76 1010.35 1010.81 1011.20 1011.60 1012.04 1012.37 1012.34 1012.42 1012.82 1013.28 1013.03
1002.76 1002.01 1001.08 1000.15 999.76 999.48 998.79 997.40 996.75 996.50 996.44 996.64 997.26 997.76 998.18 998.54 998.54 998.60 998.72 999.30 1000.00 1000.76 1002.32 1003.41 1003.40 1003.84 1004.13 1003.86 1005.38 1006.64 1007.90 1007.94 1008.04 1008.04 1008.14 1008.29 1008.75 1009.26 1009.84 1010.29 1010.80 1011.36 1011.85 1012.16 1012.40 1012.74 1013.56 1013.60 1013.38
1001.63 1001.24 1000.70 1000.23 999.80 998.94 998.76 997.65 996.88 995.95 995.38 995.64 995.98 996.40 997.20 997.64 998.11 998.21 998.58 998.92 999.55 1000.02 1000.70 1002.63 1002.90 1003.88 1003.38 1004.16 1005.58 1006.44 1007.26 1007.67 1007.75 1007.83 1008.08 1008.11 1008.33 1008.76 1009.38 1009.97 1010.46 1011.02 1011.64 1012.02 1012.26 1012.48 1012.99 1013.32 1013.39
1000.89 1000.44 1000.31 1000.21 1000.04 999.27 998.64 997.88 996.84 996.08 995.46 995.06 994.90 995.60 996.45 996.79 997.30 997.27 997.78 998.55 999.19 999.59 999.88 1001.09 1001.89 1002.95 1003.55 1004.07 1004.86 1005.56 1006.04 1006.98 1007.06 1007.47 1007.90 1008.30 1008.44 1008.81 1009.24 1009.87 1010.30 1010.92 1011.53 1011.97 1012.08 1012.27 1013.10 1013.15 1013.19
1001.39 1001.05 1001.34 1001.56 1001.12 1000.32 998.92 998.41 996.86 995.97 995.43 995.11 994.38 995.17 995.62 996.03 996.61 997.10 997.36 997.85 998.38 999.13 999.42 999.99 1000.95 1002.30 1003.20 1003.64 1004.22 1005.14 1005.91 1006.36 1006.60 1007.32 1008.06 1008.72 1008.76 1009.15 1009.48 1009.96 1010.45 1011.04 1011.52 1011.99 1012.06 1012.11 1012.26 1012.62 1013.18
1001.98 1001.71 1001.92 1002.86 1002.22 1001.03 999.35 998.43 997.09 996.02 995.54 995.01 994.26 994.47 995.00 995.32 995.54 995.94 996.48 997.04 997.87 998.34 998.82 999.39 1000.20 1001.17 1002.07 1002.98 1003.98 1004.91 1005.70 1006.82 1007.22 1007.62 1008.28 1008.77 1009.07 1009.32 1009.68 1009.95 1010.42 1010.96 1011.32 1011.80 1012.00 1012.10 1012.37 1012.71 1012.88
1001.18 1001.50 1003.48 1003.89 1003.18 1001.74 999.48 997.98 996.63 995.06 994.53 994.16 993.90 993.53 993.57 994.20 994.73 995.14 995.82 996.47 997.15 997.88 998.27 999.12 999.98 1001.09 1001.84 1002.80 1003.60 1004.60 1005.18 1005.97 1006.72 1007.44 1008.04 1008.82 1009.26 1009.51 1009.76 1010.06 1010.52 1010.98 1011.50 1011.73 1012.01 1012.44 1012.68 1012.81 1013.02
1001.46 1002.43 1002.79 1003.80 1003.27 1001.42 999.90 998.12 995.97 994.53 994.02 993.23 992.98 993.11 992.84 992.85 993.36 993.85 994.72 995.55 996.34 997.44 997.81 998.64 999.86 1000.90 1001.61 1002.55 1003.41 1004.13 1004.80 1005.64 1006.28 1007.17 1007.80 1008.45 1008.96 1009.45 1009.96 1010.59 1010.93 1011.35 1011.57 1011.71 1012.08 1012.49 1012.52 1012.67 1012.79
1001.58 1002.44 1002.92 1002.94 1003.23 1002.79 1001.48 998.26 995.85 994.28 993.43 993.32 992.82 992.40 992.40 992.49 992.54 993.04 993.74 994.53 995.59 996.57 997.51 998.11 999.27 1000.28 1001.24 1002.23 1003.40 1004.23 1004.92 1005.66 1006.64 1007.55 1008.10 1008.72 1009.22 1009.79 1010.45 1010.94 1011.29 1011.57 1011.74 1011.89 1012.19 1012.49 1012.68 1012.79 1012.92
1001.90 1001.66 1004.00 1004.16 1003.83 1002.74 999.95 998.45 996.14 995.28 994.88 993.89 992.78 992.16 991.84 991.52 991.35 992.02 992.93 993.59 994.53 995.78 997.05 998.05 998.80 999.91 1001.16 1002.41 1003.59 1004.58 1005.37 1006.34 1007.42 1007.92 1008.66 1009.20 1009.72 1010.18 1010.82 1011.30 1011.56 1011.77 1012.13 1012.39 1012.56 1013.00 1013.16 1013.33 1013.30
1002.03 1002.70 1004.10 1003.73 1003.73 1002.66 1000.71 997.97 996.35 995.95 995.09 995.36 994.04 991.82 992.05 991.68 991.13 991.63 992.20 993.06 993.96 995.33 996.44 997.90 999.10 1000.42 1001.72 1002.74 1004.15 1004.94 1006.04 1006.96 1007.76 1008.46 1009.19 1009.68 1010.13 1010.59 1011.17 1011.50 1011.78 1012.27 1012.55 1012.96 1013.28 1013.74 1014.04 1014.12 1014.08
1002.09 1002.61 1002.60 1003.20 1003.28 1002.40 1000.98 998.29 997.60 996.61 995.72 995.81 993.55 992.43 992.66 992.40 992.07 992.42 992.52 993.16 994.20 995.58 997.02 998.52 999.81 1000.95 1002.22 1003.37 1004.79 1005.91 1006.62 1007.50 1008.37 1009.20 1009.94 1010.28 1010.78 1011.21 1011.31 1011.77 1012.42 1012.89 1013.46 1014.03 1014.37 1014.64 1014.72 1014.89 1014.96
Wind_Speed
7 7 3 2 4 2 6 11 6 17 5 9 11 9 8 11 9 9 6 18 21 16 14 15 19 20 20 20 19 18 17 17 16 16 16 16 16 15 15 15 15 15 14 14 13 12 12 11 11
4 6 2 3 4 2 8 15 23 12 8 9 24 20 7 5 8 5 12 18 22 16 13 14 19 20 20 20 19 18 18 17 17 16 15 15 15 15 15 15 14 14 14 13 12 12 11 10 10
4 4 2 5 4 8 7 20 12 14 2 5 9 20 13 8 6 13 21 19 20 14 12 14 19 20 20 20 19 18 18 17 17 17 16 15 15 15 14 14 14 14 14 13 12 11 11 9 8
3 2 4 2 10 11 20 19 17 15 6 3 5 11 4 7 15 13 25 22 18 13 12 16 18 19 19 20 19 19 18 17 17 17 16 15 15 14 14 13 12 13 13 13 12 11 10 9 7
2 4 3 5 11 13 20 20 15 16 9 4 3 12 12 2 24 27 24 21 20 15 14 13 20 19 19 19 19 18 18 17 17 16 16 16 15 14 13 12 12 12 11 12 12 10 8 8 7
3 3 2 9 14 17 18 17 13 15 12 7 9 18 7 12 27 25 23 21 18 16 15 15 20 21 20 20 20 19 18 18 17 16 16 15 14 14 13 12 11 11 11 10 10 9 8 8 7
4 3 7 9 13 12 17 15 15 15 10 1 9 10 12 17 20 24 22 21 19 16 13 12 13 16 20 20 20 20 19 18 17 16 16 15 15 14 13 11 10 10 10 9 9 8 7 6 6
2 3 7 10 13 17 17 16 12 12 17 7 5 8 17 16 19 20 22 19 18 16 13 11 11 12 12 13 20 20 20 19 19 17 16 16 14 13 12 11 10 9 9 8 8 7 7 7 7
5 5 11 13 15 12 12 11 15 7 7 4 4 8 22 20 20 17 22 19 17 14 14 12 11 10 11 11 13 17 20 18 16 15 14 11 5 6 8 8 10 10 9 9 8 8 8 8 8
9 7 19 13 12 11 13 18 19 6 10 5 11 21 21 21 20 20 21 20 19 17 16 13 13 12 12 10 13 9 10 7 7 8 9 6 6 6 8 9 12 12 11 10 9 9 9 8 4
7 20 17 18 16 19 20 23 18 13 7 7 10 18 21 20 17 17 17 20 20 19 15 15 13 12 13 11 9 6 5 6 5 8 7 6 5 7 5 4 5 5 10 4 6 6 4 6 5
19 19 23 19 20 21 18 11 17 5 10 8 7 13 14 13 14 14 17 19 22 20 20 17 14 12 9 10 8 8 7 6 6 8 9 6 4 5 5 4 6 6 5 6 5 5 6 7 8
19 18 20 18 23 25 18 19 19 9 12 8 1 6 16 14 11 9 8 15 23 22 21 20 18 14 7 12 9 8 8 7 7 7 9 7 5 5 5 5 6 6 5 6 6 6 7 7 9
10 16 18 19 23 21 23 22 7 19 11 10 4 7 6 8 8 8 10 6 14 23 24 21 21 16 11 10 11 8 8 8 8 8 9 9 6 5 5 6 7 6 6 5 5 6 6 7 7
18 19 18 24 15 20 8 18 20 16 8 11 9 6 9 8 5 6 9 10 8 7 17 18 20 18 14 12 11 9 8 8 9 9 11 12 8 7 5 5 5 5 5 6 6 6 4 5 5
16 14 20 12 18 20 7 27 22 13 9 12 10 6 7 8 9 8 7 9 11 14 17 16 11 13 12 9 7 7 8 8 8 8 9 12 10 8 6 4 4 5 4 3 3 4 3 1 1
9 18 17 15 16 11 14 29 17 14 9 10 9 8 6 7 6 7 7 5 9 15 21 19 18 15 13 9 8 6 7 7 8 7 9 12 11 10 6 4 4 4 3 3 2 1 2 1 1
10 12 14 21 17 18 15 27 19 11 14 15 11 12 8 9 10 9 9 6 10 21 22 17 13 16 15 11 7 4 4 4 5 7 8 13 10 10 7 5 3 3 3 3 2 3 3 3 3
18 18 20 20 16 22 18 23 21 18 19 17 12 9 10 11 9 8 10 9 10 19 20 16 13 11 11 9 8 6 5 3 3 5 8 13 11 10 8 5 5 4 3 4 4 3 4 2 1
22 23 23 21 19 15 16 26 20 18 19 23 16 10 12 9 11 10 9 10 11 20 20 21 21 17 12 11 12 8 5 3 3 3 4 7 11 12 11 10 6 5 3 3 3 2 3 2 3
21 19 17 20 18 21 17 20 14 11 21 22 20 18 11 13 19 19 13 10 9 18 22 19 21 19 20 17 11 6 4 4 3 4 3 4 11 10 9 8 6 5 4 4 5 3 7 5 4
21 19 21 19 15 14 10 15 15 8 16 17 25 19 15 13 8 18 18 8 11 14 17 23 21 20 16 16 13 17 11 7 8 4 3 4 6 7 6 6 4 5 4 4 4 3 6 3 5
16 13 11 14 14 15 16 11 10 6 18 14 19 16 18 15 12 10 9 9 11 14 16 18 19 18 16 12 12 12 9 4 4 6 9 6 5 6 5 4 3 3 3 3 4 4 4 0 1
16 6 8 11 11 12 16 14 16 13 17 17 14 11 21 17 15 15 11 8 11 15 17 17 21 19 18 15 13 9 11 7 5 5 5 4 3 4 4 5 4 3 3 3 2 2 1 2 2
22 9 4 4 5 11 14 15 14 10 15 18 16 18 17 18 19 19 15 9 10 16 18 15 16 14 13 13 9 11 12 10 8 7 6 6 4 3 4 4 4 2 3 5 4 4 3 3 1
3 8 8 6 6 10 16 17 13 20 19 15 18 20 24 19 16 23 20 13 15 16 18 18 16 13 14 14 11 10 8 5 7 5 5 4 4 5 7 7 7 6 6 6 5 3 3 3 3
5 6 7 5 6 4 4 23 16 21 22 19 21 20 17 14 22 20 23 16 13 19 18 18 17 16 14 13 12 11 8 10 9 10 9 8 10 8 9 8 6 6 6 7 5 4 5 4 4
11 3 6 3 5 5 8 11 11 1 8 15 23 22 20 19 24 20 19 19 14 18 18 16 17 17 16 15 11 9 13 13 12 11 11 11 10 10 9 7 7 7 7 6 7 4 5 6 5
4 5 6 3 4 5 8 12 6 4 5 12 23 21 8 2 9 12 18 15 14 17 20 16 16 19 16 15 15 16 14 14 12 11 10 10 9 8 8 6 8 7 7 7 8 8 9 9 7
3 4 5 5 7 6 6 8 3 7 6 15 22 11 11 10 11 9 7 9 12 17 18 19 18 19 17 18 17 15 15 14 13 13 11 10 10 8 9 10 10 11 11 11 10 9 8 8 8
Wind_Direction
296 288 231 311 41 107 259 260 249 274 257 185 207 90 135 106 146 227 264 124 131 136 144 141 138 134 131 129 128 126 125 121 120 116 112 110 108 105 104 101 101 103 104 106 108 106 103 100 94
315 310 221 250 132 266 268 253 256 268 193 150 100 120 84 114 177 227 123 134 134 137 141 145 141 138 134 132 132 130 129 126 126 122 119 116 114 113 111 110 110 109 111 112 113 113 113 110 107
273 230 64 158 204 217 247 262 292 309 175 177 97 107 142 173 204 131 127 135 127 136 136 147 142 140 136 135 135 135 133 132 132 128 126 125 122 121 119 120 120 119 122 121 121 122 125 125 123
286 352 303 131 242 252 235 262 270 285 276 119 98 97 49 211 141 125 131 135 128 141 134 144 140 139 138 139 138 139 138 137 136 134 135 133 130 129 128 128 128 128 131 131 132 136 138 138 143
247 262 223 213 242 256 266 267 285 296 291 128 129 137 142 224 121 130 134 136 142 136 138 143 140 140 141 142 141 142 141 141 140 141 141 140 138 137 135 135 136 137 137 139 142 145 148 149 160
300 174 230 222 246 260 264 268 271 270 276 204 121 120 141 154 130 139 139 140 147 136 142 148 144 145 146 146 146 146 146 146 147 147 147 147 145 144 144 144 145 147 146 148 152 156 163 166 179
195 314 226 231 251 263 258 265 259 265 275 239 162 119 140 142 141 139 141 145 131 136 136 143 145 147 147 149 150 150 150 152 152 152 154 154 155 153 153 152 153 157 153 157 161 167 176 190 204
229 232 261 256 248 257 270 279 274 297 271 195 127 143 157 155 146 140 135 126 132 134 141 145 145 147 149 153 155 156 157 158 158 158 159 159 161 159 159 157 164 166 163 168 170 177 194 212 223
258 231 246 236 243 255 285 288 289 291 346 20 72 126 147 144 137 139 133 134 137 141 147 149 151 151 152 152 163 160 161 158 156 157 156 150 146 155 163 165 173 174 173 176 182 191 206 220 232
193 222 237 250 255 257 269 277 279 317 306 286 101 110 132 145 150 153 151 150 149 150 157 158 158 158 153 154 163 152 159 153 152 154 157 158 160 166 173 186 182 181 182 186 192 201 211 220 220
219 233 244 255 248 258 265 277 288 303 310 233 147 143 151 156 162 158 159 159 154 156 159 164 162 164 161 149 158 156 154 154 159 160 166 171 176 178 183 181 182 178 193 190 195 204 210 210 213
246 238 240 255 261 269 269 306 294 321 254 260 232 160 160 167 168 165 164 161 154 162 161 163 161 170 166 144 160 160 160 165 172 176 172 182 186 184 184 169 180 185 190 198 194 202 211 217 224
258 241 250 245 246 258 272 262 268 288 296 274 14 41 172 176 171 159 174 167 157 163 162 164 160 171 148 151 162 162 167 171 174 170 176 181 192 188 189 180 180 190 187 197 209 205 210 215 222
278 269 258 242 245 244 247 260 273 274 275 266 292 119 95 139 152 140 163 190 170 164 166 160 162 170 148 161 165 171 168 171 171 177 180 185 190 201 192 191 188 190 190 199 206 214 214 221 220
259 271 275 255 265 254 268 256 241 250 266 267 261 188 164 195 194 195 172 140 183 178 152 153 165 172 159 165 167 169 173 179 180 182 178 187 189 202 204 196 195 190 192 200 209 226 223 195 205
280 269 254 255 254 259 233 250 249 249 245 251 256 241 196 200 209 205 215 169 192 153 146 130 193 172 163 136 171 184 173 183 187 187 182 185 195 189 205 196 200 219 231 223 195 201 204 228 80
252 255 261 265 245 247 226 256 241 235 221 238 245 241 225 217 220 223 211 227 151 141 146 155 165 171 164 151 165 186 186 171 197 183 182 186 196 198 173 191 199 197 211 166 143 96 106 65 279
238 254 253 256 264 233 243 257 245 214 233 243 244 240 233 223 230 222 246 217 146 152 155 152 171 184 168 170 147 168 197 195 186 194 176 180 190 194 181 185 194 215 197 190 155 173 203 203 206
263 265 253 253 241 243 247 254 242 221 216 232 222 222 232 231 225 217 217 224 147 157 155 156 169 174 163 175 168 188 206 196 200 192 175 180 184 183 177 183 191 210 176 202 205 206 211 291 214
235 245 258 272 272 278 268 253 249 233 221 213 210 206 214 228 230 227 212 209 164 171 164 169 180 185 186 179 188 186 188 202 194 196 192 170 180 182 184 184 181 184 168 219 251 78 23 290 245
242 246 248 244 254 267 266 274 272 264 228 208 208 196 202 201 228 223 212 199 163 166 165 166 173 188 189 177 172 164 156 199 193 201 188 179 179 167 164 170 167 171 125 192 222 170 201 227 271
246 237 249 262 259 246 250 263 261 249 278 245 204 197 210 214 217 211 212 199 189 176 165 163 164 177 183 169 170 181 192 179 210 173 140 126 142 128 134 150 152 132 135 156 254 233 234 194 264
281 291 334 309 293 292 248 253 264 252 232 262 196 205 211 208 187 204 205 199 191 175 168 166 158 161 168 176 170 180 191 146 113 111 117 121 116 127 155 144 119 93 120 198 214 250 267 229 258
269 270 314 326 298 272 250 232 251 241 246 268 251 212 204 213 196 202 203 183 192 176 167 165 166 173 174 169 173 160 147 150 131 130 137 149 132 148 150 155 138 144 144 160 209 227 190 254 240
278 213 204 289 267 259 255 240 227 219 224 215 238 232 222 203 201 198 200 179 159 173 164 158 157 158 162 173 144 159 154 148 148 148 139 146 156 119 142 108 105 91 96 80 78 49 32 44 67
228 325 226 209 220 265 259 260 233 246 244 239 235 232 231 222 190 194 200 193 163 178 168 164 157 154 154 158 144 147 141 132 136 127 132 133 126 103 95 94 89 82 83 84 74 91 82 48 40
308 254 295 174 192 256 276 270 240 232 236 236 255 256 257 233 209 184 194 196 160 175 181 168 165 168 155 147 130 130 122 115 108 102 99 102 102 100 95 98 94 89 84 69 67 49 38 42 25
199 147 318 3 179 226 234 270 247 297 318 267 240 249 251 265 197 183 180 191 183 167 171 168 161 153 137 128 123 108 104 101 106 106 102 102 103 104 100 102 103 85 66 57 56 41 22 39 21
160 150 178 189 161 202 263 252 190 262 313 317 293 235 228 140 148 174 185 176 173 155 164 154 134 124 118 112 111 110 108 105 107 101 105 110 108 109 116 107 92 90 79 60 55 53 39 38 24
163 324 202 176 184 208 244 270 354 295 347 315 272 236 111 71 71 72 116 150 131 122 123 121 117 113 115 113 105 106 108 103 102 98 98 98 97 88 85 79 77 64 56 54 55 54 41 32 16